Location: *
(37.9500°N, 27.3666°E)
Time: 04:33:13
(UTC+00:00)

SWARM A - Pass Details

Date: 24 October 2021
Orbit: 424 x 429 km, 87.4° (Epoch: 03 December)

Event Time Altitude Azimuth Distance (km) Brightness Sun altitude
Rises 16:47:27 0° 183° (S) 2,384 8.0 -17.7°
Reaches altitude 10° 16:49:28 10° 185° (S) 1,524 7.0 -18.1°
Maximum altitude 16:52:46 75° 271° (W) 450 4.3 -18.7°
Drops below altitude 10° 16:56:06 10° 358° (N) 1,539 7.0 -19.4°
Sets 16:58:09 0° 360° (N) 2,412 8.0 -19.8°
